Location: Newark
(49.2191°N, 12.6671°E)
Time: 14:59:49
(UTC+00:00)

Transit 4A - Pass Details

Date: 02 February 2020
Orbit: 872 x 973 km, 66.8° (Epoch: 22 February)

Event Time Altitude Azimuth Distance (km) Brightness Sun altitude
Rises 12:45:13 0° 322° (NW) 3,472 10.6 21.4°
Reaches altitude 10° 12:47:43 10° 319° (NW) 2,530 10.0 21.3°
Maximum altitude 12:53:26 60° 241° (WSW) 1,002 8.9 20.9°
Drops below altitude 10° 12:59:11 10° 163° (SSE) 2,541 11.1 20.6°
Sets 13:01:43 0° 160° (SSE) 3,488 11.6 20.4°
